Regional Weather Roundup
Issued by NWS

Home | Current Version | Previous Version | Text Only | Print | Product List | Glossary On
Versions: 1 2 3 4 5 6 7 8 9 10 11 12 13 14 15 16 17 18 19 20 21 22 23 24 25 26 27 28 29 30 31 32 33 34 35 36 37 38 39 40 41 42 43 44 45 46 47 48 49 50
000
ASUS43 KDTX 311910
RWRMI
MICHIGAN HOURLY REGIONAL WEATHER ROUNDUP
NATIONAL WEATHER SERVICE DETROIT/PONTIAC MI
200 PM EST SAT JAN 31 2015

NOTE: "FAIR" INDICATES FEW OR NO CLOUDS BELOW 12,000 FEET WITH NO
SIGNIFICANT WEATHER AND/OR OBSTRUCTION TO VISIBILITY.

MIZ047>049-052>055-059>063-066>070-074>076-081>083-312000-
SOUTHEAST LOWER MICHIGAN

CITY           SKY/WX    TMP DP  RH WIND       PRES   REMARKS
ADRIAN         CLOUDY    33  21  61 W14       30.20F WCI  23
ALMA           CLOUDY    32  25  74 SW10      30.14F WCI  23
ANN ARBOR      CLOUDY    33  19  56 W12       30.18F WCI  24
BAD AXE        CLOUDY    28  22  79 SW8       30.15S WCI  19
CARO           CLOUDY    30  22  72 SW7       30.14F WCI  23
DETROIT CITY   SUNNY     34  18  52 W10       30.19F WCI  26
DETROIT        PTSUNNY   34  20  56 SW10      30.20F WCI  26
FLINT          CLOUDY    32  21  64 SW9       30.16F WCI  24
GROSSE ILE     SUNNY     34  21  60 SW9       30.19F WCI  26
HILLSDALE      SUNNY     34  20  56 SW12      30.16F WCI  26
HOWELL         CLOUDY    31  20  61 S8        30.15F WCI  24

CITY           SKY/WX    TMP DP  RH WIND       PRES   REMARKS
JACKSON        CLOUDY    33  19  56 W12       30.16F WCI  24
LAMBERTVILLE   MOSUNNY   34  23  64 W8        30.21F WCI  27
LANSING        CLOUDY    32  21  64 SW12      30.16F WCI  23
LAPEER         CLOUDY    31  20  63 W9        30.15F WCI  23
MASON          CLOUDY    32  20  60 SW7       30.15F WCI  26
MONROE         SUNNY     34  21  60 SW14      30.19F WCI  24
MT. CLEMENS    MOSUNNY   33  19  58 SW12      30.17F WCI  24
PONTIAC        PTSUNNY   31  19  61 S7        30.14F WCI  24
PORT HOPE        N/A     27  18  69 VRB7      30.12F WCI  19
PORT HURON     SUNNY     28  19  69 S10       30.18F WCI  19
TRI CITIES     CLOUDY    32  22  66 SW9       30.15F WCI  24
TROY           SUNNY     35  18  50 SW5       30.19F WCI  31
SAGINAW HB     CLOUDY    32  23  69 SW6       30.15F WCI  26
$$
MIZ043>046-050>051-056>058-064>065-071>073-077>080-312000-
SOUTHWEST LOWER MICHIGAN

CITY           SKY/WX    TMP DP  RH WIND       PRES   REMARKS
BATTLE CREEK   SUNNY     34  21  59 SW14      30.17F WCI  25
BENTON HARBOR  SUNNY     36  24  62 SW16      30.18F WCI  26
BIG RAPIDS     CLOUDY    31  25  78 W8        30.12S WCI  23
COLDWATER      SUNNY     33  22  64 SW13      30.17F WCI  24
FREMONT        CLOUDY    32  23  68 W8        30.14S WCI  25
HOLLAND        CLOUDY    34  25  69 W17       30.17S WCI  23
GRAND RAPIDS   CLOUDY    33  25  72 W14       30.15F WCI  23
IONIA          CLOUDY    33  26  75 SW13      30.14F WCI  24
KALAMAZOO      SUNNY     34  21  59 SW13      30.17F WCI  25
LUDINGTON      CLOUDY    31  22  70 NW6       30.16  WCI  25
MARSHALL       MOSUNNY   33  21  61 SW10G16   30.16F WCI  25
MOUNT PLEASANT CLOUDY    32  24  72 SW7       30.13S WCI  25
MUSKEGON       CLOUDY    33  24  69 W8        30.16F WCI  26
SOUTH HAVEN    MOSUNNY   35  25  67 SW15G21   30.17F WCI  25
$$
MIZ016>042-312000-
NORTHERN LOWER MICHIGAN

CITY           SKY/WX    TMP DP  RH WIND       PRES   REMARKS
ALPENA         CLOUDY    25  17  72 W10       30.10F WCI  15
BEAVER ISLAND  CLOUDY    26  20  79 CALM      30.13R
BELLAIRE       CLOUDY    28  20  73 W7        30.14S WCI  20
CADILLAC       CLOUDY    26  21  79 W8        30.09S WCI  18
CHARLEVOIX     CLOUDY    27  20  77 W8        30.15F WCI  18
FRANKFORT      CLOUDY    28  22  81 N5        30.15F WCI  22
GAYLORD        CLOUDY    23  19  85 W6G16     30.07S WCI  16
GRAYLING       CLOUDY    26  20  78 W9          N/A  WCI  16
HARBOR SPRINGS CLOUDY    26  19  74 SW7       30.11S WCI  18
HOUGHTON LAKE  CLOUDY    25  19  78 W9        30.09F WCI  15
MANISTEE       CLOUDY    28  19  69 NW7       30.15F WCI  21
OSCODA         CLOUDY    25  19  77 SW8       30.12F WCI  16
PELLSTON       CLOUDY    26  17  68 W16       30.11S WCI  14
TRAVERSE CITY  CLOUDY    27  21  78 NW9       30.13F WCI  18
$$
MIZ007>008-015-312000-
EASTERN UPPER MICHIGAN

CITY           SKY/WX    TMP DP  RH WIND       PRES   REMARKS
KINROSS        CLOUDY    25  19  80 W17       30.06S WCI  11
MACKINAC ISLAN CLOUDY    23  17  78 W13       30.09R WCI  11
NEWBERRY       LGT SNOW  23  19  86 NW14G22   30.09R WCI  10
S. S. MARIE    LGT SNOW  21  16  81 W7        30.06R WCI  12
MUNISING         N/A     24  16  71 N17G29    30.17R WCI  11
$$
MIZ004>006-011>014-085-312000-
CENTRAL UPPER MICHIGAN

CITY           SKY/WX    TMP DP  RH WIND       PRES   REMARKS
MANISTIQUE     CLOUDY    25  18  74 NW18G25   30.12R WCI  12
ESCANABA       CLOUDY    27  16  63 N7        30.16R WCI  19
MENOMINEE      CLOUDY    27  18  69 N6        30.15F WCI  20
SAWYER-GWINN   LGT SNOW  19  14  79 N13       30.11F WCI   7
$$
MIZ001>003-009>011-084-312000-
WESTERN UPPER MICHIGAN

CITY           SKY/WX    TMP DP  RH WIND       PRES   REMARKS
IRON MOUNTAIN  CLOUDY    25  16  68 NW14      30.12S WCI  13
HOUGHTON       CLOUDY    16   6  65 N15       30.19R WCI   1
COPPER HARBOR    N/A     17   8  67 NE23G31   30.22R WCI  -1
IRONWOOD       CLOUDY    18  12  79 N12       30.18S WCI   5
$$

ABBREVIATIONS USED IN REMARKS
   TC - TEMPERATURE IN CELSIUS
  WCI - WIND CHILL INDEX
   HX - HEAT INDEX
  VSB - VISIBILITY



USA.gov is the U.S. government's official web portal to all federal, state and local government web resources and services.